TimeAKDT,TemperatureF,Dew PointF,Humidity,Sea Level PressureIn,VisibilityMPH,Wind Direction,Wind SpeedMPH,Gust SpeedMPH,PrecipitationIn,Events,Conditions,WindDirDegrees,DateUTC
12:10 AM,39.2,37.4,93,30.04,10.0,NE,18.4,-,N/A,,Mostly Cloudy,40,2013-08-06 08:10:00
12:37 AM,39.2,37.4,93,30.04,10.0,NE,18.4,23.0,N/A,,Mostly Cloudy,40,2013-08-06 08:37:00
12:56 AM,39.2,37.4,93,30.05,10.0,NE,17.3,-,N/A,,Overcast,40,2013-08-06 08:56:00
1:12 AM,39.2,37.4,93,30.04,10.0,NE,17.3,24.2,N/A,,Overcast,40,2013-08-06 09:12:00
1:28 AM,39.2,37.4,93,30.04,10.0,NE,20.7,25.3,N/A,,Overcast,40,2013-08-06 09:28:00
1:56 AM,38.8,36.9,93,30.06,10.0,NE,19.6,-,N/A,,Overcast,50,2013-08-06 09:56:00
2:56 AM,38.8,36.9,93,30.06,10.0,NE,18.4,-,N/A,,Overcast,40,2013-08-06 10:56:00
3:56 AM,39.2,37.4,93,30.05,9.0,NE,18.4,26.5,N/A,,Overcast,40,2013-08-06 11:56:00
4:56 AM,38.8,36.9,93,30.06,4.0,NE,18.4,-,N/A,,Overcast,40,2013-08-06 12:56:00
5:43 AM,39.2,37.4,93,30.05,2.5,NE,18.4,-,N/A,,Overcast,40,2013-08-06 13:43:00
5:56 AM,37.9,36.9,96,30.06,4.0,NE,19.6,26.5,0.00,Rain,Light Rain,50,2013-08-06 13:56:00
6:56 AM,39.2,37.4,93,30.04,10.0,NE,20.7,27.6,N/A,,Mostly Cloudy,40,2013-08-06 14:56:00
7:33 AM,37.4,37.4,100,30.04,10.0,NE,19.6,-,0.00,,Overcast,40,2013-08-06 15:33:00
7:56 AM,38.8,36.9,93,30.05,10.0,NE,18.4,-,0.00,,Overcast,50,2013-08-06 15:56:00
8:21 AM,39.2,37.4,93,30.03,10.0,NE,18.4,-,N/A,,Overcast,40,2013-08-06 16:21:00
8:28 AM,39.2,37.4,93,30.03,8.0,NE,18.4,-,0.00,Rain,Light Rain,40,2013-08-06 16:28:00
8:56 AM,38.8,36.9,93,30.04,8.0,NE,19.6,-,0.00,Rain,Light Rain,50,2013-08-06 16:56:00
9:06 AM,39.2,37.4,93,30.02,8.0,NE,23.0,26.5,0.00,Rain,Light Rain,50,2013-08-06 17:06:00
9:34 AM,39.2,37.4,93,30.02,8.0,NE,19.6,24.2,0.00,Rain,Light Rain,50,2013-08-06 17:34:00
9:56 AM,39.2,37.4,93,30.02,7.0,NE,19.6,-,N/A,,Overcast,50,2013-08-06 17:56:00
10:48 AM,41.0,39.2,93,30.01,10.0,ENE,18.4,25.3,0.00,,Overcast,60,2013-08-06 18:48:00
10:56 AM,41.0,38.8,92,30.02,10.0,ENE,19.6,25.3,0.00,,Overcast,60,2013-08-06 18:56:00
11:56 AM,41.9,38.8,89,30.01,10.0,ENE,21.9,31.1,N/A,,Mostly Cloudy,60,2013-08-06 19:56:00
12:56 PM,44.6,41.0,87,29.99,10.0,ENE,21.9,26.5,N/A,,Mostly Cloudy,70,2013-08-06 20:56:00
1:56 PM,45.9,41.9,86,29.99,10.0,ENE,21.9,25.3,N/A,,Overcast,70,2013-08-06 21:56:00
2:38 PM,46.4,44.6,93,29.97,10.0,ENE,17.3,-,N/A,,Overcast,60,2013-08-06 22:38:00
2:56 PM,47.8,43.9,86,29.98,10.0,ENE,16.1,-,N/A,,Overcast,60,2013-08-06 22:56:00
3:44 PM,51.8,46.4,82,29.95,10.0,ENE,16.1,-,N/A,,Overcast,60,2013-08-06 23:44:00
3:56 PM,50.9,45.9,83,29.96,10.0,ENE,17.3,-,N/A,,Overcast,70,2013-08-06 23:56:00
4:32 PM,53.6,46.4,77,29.94,10.0,ENE,16.1,-,N/A,,Scattered Clouds,70,2013-08-07 00:32:00
4:56 PM,54.0,47.8,80,29.95,10.0,ENE,13.8,-,N/A,,Partly Cloudy,60,2013-08-07 00:56:00
5:56 PM,55.9,50.0,80,29.94,10.0,ENE,13.8,-,N/A,,Clear,70,2013-08-07 01:56:00
6:56 PM,59.0,52.0,78,29.93,10.0,NE,11.5,-,N/A,,Clear,50,2013-08-07 02:56:00
7:56 PM,57.9,52.9,83,29.94,10.0,ENE,10.4,-,N/A,,Clear,70,2013-08-07 03:56:00
8:56 PM,59.0,52.9,80,29.93,10.0,ENE,9.2,-,N/A,,Clear,60,2013-08-07 04:56:00
9:56 PM,56.8,52.9,87,29.93,10.0,ENE,8.1,-,N/A,,Clear,60,2013-08-07 05:56:00
10:56 PM,54.9,52.0,90,29.93,10.0,NE,8.1,-,N/A,,Clear,50,2013-08-07 06:56:00
11:56 PM,54.0,50.9,89,29.93,10.0,NE,5.8,-,N/A,,Partly Cloudy,50,2013-08-07 07:56:00